DECAYED

OBJECT R, 59113 (Decayed)

Orbit data source: Space-Track

You're viewing an Uncataloged Satellite

Recently launched and/or uncataloged satellites may have evolving metadata. Metadata may include but not limited to: Owner, Maufacturer, Bus, Motor, and Mission.

OBJECT R, 59113 was a satellite in LEO that was launched on Mon, 04 Mar 2024 UTC via an FALCON 9 launch vehicle from the Air Force Western Test Range (AFWTR). Unknown objects in Earth's orbit typically refer to objects detected orbiting the Earth but have not yet been identified or cataloged. These objects could be anything from previously untracked satellites, spent rocket stages, debris from satellite collisions, or even natural meteoroids temporarily captured by Earth's gravity. This object's orbit decayed before it could be identified.

Not visible in the next 10 days
Identifier
59113, 2024-043R
Orbit
Decayed
Country
Flag of TBDTBD
Related business
None
Manufacturer
Unknown
Mission
Decayed Commercial Communications
Bus & Motor
Unknown
Mass
Unknown
Launch date (UTC)
2024-03-04 (2 years ago)
Launch vehicle
FALCON 9
Launch site
Air Force Western Test Range (AFWTR)
Object type
Unknown
Shape & HBR
Box, 0.0 m
Radar Cross Section
0.004 m², Small (<0.1 m²)

Expand to show TLE details & history
Last TLE update: 5 months ago

TLE from 5 months ago
0 OBJECT R
1 59113U 24043R   25355.90708954  .02204764  24632-5  13185-2 0  9991
2 59113  97.4933 142.9432 0005613 319.0070  41.0795 16.18437974101105
Epoch: 2025-12-21T21:46Z
TLE epoch observation values (Epoch: 2025-12-21T21:46:12.536Z)
Latitude
-0.00002°
Longitude
85.67816°
Altitude
224.223 km
Speed
7.774 km/s
True Right ascension
09h 31m 46s
True Declination
0° 00' 00"
Sunlit
Object was in full shadow at epoch
Visualization orbit readout
Latitude
Unknown
Longitude
Unknown
Altitude
Unknown
Speed
Unknown
Apparent Right ascension
Unknown
Apparent Declination
Unknown
Sunlit
N/A
Visualization observer readout
Local Sidereal Time
21:26:37
Azimuth
Unknown
Elevation
Unknown
Doppler factor
Unknown
Orbital elements
Apogee altitude
224.34 km
Perigee altitude
216.932 km
Semi-major axis
6,598.773 km
Eccentricity
0.00056
Inclination
97.4933°
RAAN
142.9432°
Arg. of periapsis
319.007°
True anomaly
41.12179°
Mean anomaly
41.0795°
Eccentric anomaly
41.10064°
Mean motion
4.04901 °/min
Orbital period
88.91 mins
BSTAR
0.0013185
Loading maneuver chart data...
Computing Atmospheric mass density...
Loading historical data...
Loading historical data...
Loading historical data...
Loading historical data...
Loading historical data...
Loading historical data...
Loading historical data...

Documentation

Showing up to 5 results
|